Guymon, OK

4:28 AM CDT on July 25, 2017 (GMT -0500)
Guymon Municipal

Weather History for KGUY - November, 2012

Change the Weather History Date:

Friday, November 2, 2012

  Actual Average Record
Temperature  
Mean Temperature 62 °F 51 °F  
Max Temperature 78 °F 66 °F 89 °F (2005)
Min Temperature 45 °F 36 °F 23 °F (2006)
Degree Days  
Heating Degree Days 3 14  
Month to date heating degree days 6 27  
Since 1 July heating degree days 314 336  
Cooling Degree Days 0 0  
Month to date cooling degree days 0 0  
Year to date cooling degree days 1917 1481  
Growing Degree Days 12 (Base 50)    
Moisture  
Dew Point 26 °F    
Average Humidity 38    
Maximum Humidity 60    
Minimum Humidity 16    
Precipitation  
Precipitation 0.00 in 0.02 in 0.07 in (2002)
Month to date precipitation 0.00 0.04  
Year to date precipitation 10.79 18.17  
Snow  
Snow 0.00 in - - ()
Month to date snowfall 0.0  
Since 1 July snowfall 0.0  
Since 1 September snowfall 0.0  
Snow Depth 0.00 in    
Sea Level Pressure  
Sea Level Pressure 29.84 in    
Wind  
Wind Speed 13 mph (NNW)    
Max Wind Speed 23 mph    
Max Gust Speed 29 mph    
Visibility 10 miles    
Events      
T = Trace of Precipitation, MM = Missing Value Source: NWS Daily Summary

Daily Weather History Graph

Daily Weather History Graph

Search for Another Location

Airport or City:

Trip Planner

Search our weather history database for the weather conditions in past years. The results will help you decide how hot, cold, wet, or windy it might be!

Date:

Astronomy

Nov. 02, 2012 Rise Set
Actual Time 8:11 AM CDT 6:47 PM CDT
Civil Twilight 7:44 AM CDT 7:14 PM CDT
Nautical Twilight 7:13 AM CDT 7:44 PM CDT
Astronomical Twilight 6:43 AM CDT 8:15 PM CDT
Moon 9:39 PM CDT (11/2) 11:29 AM CDT (11/2)
Length of Visible Light 11h 30m
Length of Day
10h 36m
Waning Gibbous, 87% of the Moon is Illuminated
Nov 2
Waning Gibbous
Nov 6
Last Quarter
Nov 13
New
Nov 20
First Quarter
Nov 28
Full

Hourly Weather History & Observations

Time (CDT) Temp. Dew Point Humidity Pressure Visibility Wind Dir Wind Speed Gust Speed Precip Events Conditions
12:53 AM 50.0 °F 28.0 °F 43% 29.79 in 10.0 mi SSW 6.9 mph - N/A   Clear
1:53 AM 51.1 °F 26.1 °F 38% 29.77 in 10.0 mi SSW 6.9 mph - N/A   Clear
2:53 AM 51.1 °F 25.0 °F 36% 29.76 in 10.0 mi SSW 10.4 mph - N/A   Clear
3:53 AM 52.0 °F 23.0 °F 32% 29.75 in 10.0 mi SW 6.9 mph - N/A   Clear
4:53 AM 55.0 °F 21.9 °F 28% 29.74 in 10.0 mi SW 16.1 mph 24.2 mph N/A   Clear
5:53 AM 52.0 °F 21.0 °F 30% 29.75 in 10.0 mi SW 13.8 mph - N/A   Clear
6:53 AM 50.0 °F 19.0 °F 29% 29.78 in 10.0 mi WSW 10.4 mph - N/A   Clear
7:53 AM 46.9 °F 19.0 °F 33% 29.81 in 10.0 mi Calm Calm - N/A   Clear
8:53 AM 50.0 °F 19.0 °F 29% 29.83 in 10.0 mi WSW 5.8 mph - N/A   Clear
9:53 AM 60.1 °F 19.0 °F 20% 29.83 in 10.0 mi West 11.5 mph - N/A   Clear
10:53 AM 69.1 °F 21.9 °F 17% 29.83 in 10.0 mi NW 16.1 mph 20.7 mph N/A   Clear
11:53 AM 72.0 °F 27.0 °F 19% 29.84 in 10.0 mi North 18.4 mph - N/A   Clear
12:53 PM 73.9 °F 28.0 °F 18% 29.83 in 10.0 mi North 20.7 mph 26.5 mph N/A   Clear
1:53 PM 75.9 °F 28.0 °F 17% 29.82 in 10.0 mi North 17.3 mph 24.2 mph N/A   Clear
2:53 PM 77.0 °F 28.9 °F 17% 29.81 in 10.0 mi North 17.3 mph - N/A   Clear
3:53 PM 77.0 °F 28.0 °F 17% 29.80 in 10.0 mi North 13.8 mph 24.2 mph N/A   Clear
4:53 PM 75.9 °F 28.0 °F 17% 29.81 in 10.0 mi NNE 19.6 mph 24.2 mph N/A   Clear
5:53 PM 73.9 °F 27.0 °F 18% 29.84 in 10.0 mi NNE 16.1 mph 21.9 mph N/A   Clear
6:53 PM 68.0 °F 28.9 °F 23% 29.90 in 10.0 mi NNE 15.0 mph - N/A   Clear
7:53 PM 63.0 °F 28.9 °F 28% 29.95 in 10.0 mi NNE 10.4 mph - N/A   Clear
8:53 PM 55.0 °F 30.0 °F 38% 29.99 in 10.0 mi NNE 8.1 mph - N/A   Clear
9:53 PM 52.0 °F 32.0 °F 47% 30.00 in 10.0 mi NNE 10.4 mph - N/A   Clear
10:53 PM 51.1 °F 34.0 °F 52% 30.00 in 10.0 mi NNE 13.8 mph - N/A   Clear
11:53 PM 46.9 °F 34.0 °F 61% 30.01 in 10.0 mi North 10.4 mph - N/A   Clear